Hourly Weather Dziadowki

Today, 10 May, Monday

Time Temperature Precipitation Wind Pressure Humidity
00:00 +9°C° 0 mm 3 mps 740 mmHg 84%
01:00 +8°C° 0 mm 3 mps 740 mmHg 85%
02:00 +8°C° 0 mm 3 mps 740 mmHg 87%
03:00 +7°C° 0 mm 3 mps 740 mmHg 88%
04:00 +7°C° 0 mm 3 mps 740 mmHg 89%
05:00 +9°C° 0 mm 3 mps 740 mmHg 84%
06:00 +10°C° 0 mm 4 mps 740 mmHg 78%
07:00 +12°C° 0 mm 5 mps 740 mmHg 73%
08:00 +14°C° 0 mm 5 mps 740 mmHg 68%
09:00 +17°C° 0 mm 4 mps 740 mmHg 63%
10:00 +19°C° 0 mm 4 mps 740 mmHg 58%
11:00 +20°C° 0 mm 4 mps 739 mmHg 55%
12:00 +21°C° 0 mm 4 mps 739 mmHg 53%
13:00 +23°C° 0 mm 4 mps 739 mmHg 50%
14:00 +23°C° 0 mm 4 mps 739 mmHg 53%
15:00 +23°C° 0 mm 4 mps 739 mmHg 55%
16:00 +23°C° 0 mm 4 mps 739 mmHg 58%
17:00 +21°C° 0 mm 4 mps 739 mmHg 65%
18:00 +19°C° 0 mm 4 mps 739 mmHg 72%
19:00 +17°C° 0 mm 4 mps 739 mmHg 78%
20:00 +14°C° 0 mm 4 mps 739 mmHg 81%
21:00 +13°C° 0 mm 3 mps 739 mmHg 84%
22:00 +12°C° 0 mm 3 mps 739 mmHg 87%
23:00 +12°C° 0 mm 3 mps 739 mmHg 88%

Tomorrow, 11 May, Tuesday

Time Temperature Precipitation Wind Pressure Humidity
00:00 +11°C° 0 mm 3 mps 739 mmHg 90%
01:00 +11°C° 0 mm 3 mps 738 mmHg 91%
02:00 +10°C° 0 mm 3 mps 738 mmHg 91%
03:00 +10°C° 0 mm 3 mps 738 mmHg 92%
04:00 +10°C° 0 mm 3 mps 738 mmHg 92%
05:00 +11°C° 0 mm 4 mps 738 mmHg 88%
06:00 +13°C° 0 mm 5 mps 737 mmHg 83%
07:00 +14°C° 0 mm 5 mps 737 mmHg 79%
08:00 +16°C° 0 mm 6 mps 737 mmHg 74%
09:00 +19°C° 0 mm 6 mps 737 mmHg 68%
10:00 +21°C° 0 mm 7 mps 737 mmHg 63%
11:00 +22°C° 0 mm 7 mps 737 mmHg 60%
12:00 +23°C° 0 mm 7 mps 737 mmHg 57%
13:00 +24°C° 0 mm 7 mps 737 mmHg 55%
14:00 +24°C° 0 mm 7 mps 736 mmHg 58%
15:00 +24°C° 0 mm 7 mps 736 mmHg 61%
16:00 +23°C° 0 mm 7 mps 736 mmHg 64%
17:00 +21°C° 0 mm 7 mps 736 mmHg 68%
18:00 +18°C° 0 mm 7 mps 735 mmHg 72%
19:00 +16°C° 0 mm 7 mps 735 mmHg 76%
20:00 +15°C° 0 mm 7 mps 735 mmHg 76%
21:00 +15°C° 0 mm 7 mps 735 mmHg 76%
22:00 +14°C° 0 mm 7 mps 735 mmHg 76%
23:00 +13°C° 0 mm 6 mps 735 mmHg 75%

Day after tomorrow, 12 May, Wednesday

Time Temperature Precipitation Wind Pressure Humidity
00:00 +11°C° 0 mm 6 mps 735 mmHg 75%
01:00 +11°C° 0 mm 6 mps 735 mmHg 74%
02:00 +10°C° 0 mm 6 mps 734 mmHg 72%
03:00 +10°C° 0 mm 5 mps 734 mmHg 70%
04:00 +9°C° 0 mm 5 mps 734 mmHg 68%
05:00 +12°C° 0 mm 5 mps 734 mmHg 68%
06:00 +13°C° 0 mm 6 mps 734 mmHg 69%
07:00 +14°C° 0 mm 6 mps 734 mmHg 70%
08:00 +15°C° 0 mm 7 mps 733 mmHg 67%
09:00 +17°C° 0 mm 8 mps 733 mmHg 65%
10:00 +19°C° 0 mm 9 mps 733 mmHg 63%
11:00 +19°C° 0 mm 9 mps 733 mmHg 63%
12:00 +19°C° 0 mm 9 mps 733 mmHg 62%
13:00 +21°C° 0 mm 9 mps 733 mmHg 62%
14:00 +19°C° 0 mm 9 mps 732 mmHg 65%
15:00 +18°C° 0 mm 9 mps 732 mmHg 68%
16:00 +16°C° 0 mm 9 mps 732 mmHg 71%
17:00 +15°C° 0 mm 9 mps 732 mmHg 71%
18:00 +13°C° 0 mm 8 mps 732 mmHg 72%
19:00 +12°C° 0 mm 8 mps 731 mmHg 73%
20:00 +11°C° 0 mm 8 mps 731 mmHg 73%
21:00 +10°C° 0 mm 8 mps 731 mmHg 73%
22:00 +9°C° 0 mm 8 mps 731 mmHg 73%
23:00 +9°C° 0 mm 7 mps 730 mmHg 76%

13 May, Thursday

Time Temperature Precipitation Wind Pressure Humidity
00:00 +8°C° 0 mm 6 mps 730 mmHg 79%
01:00 +7°C° 0 mm 5 mps 730 mmHg 82%
02:00 +7°C° 0 mm 4 mps 729 mmHg 84%
03:00 +7°C° 0 mm 4 mps 729 mmHg 85%
04:00 +8°C° 0 mm 3 mps 729 mmHg 86%
05:00 +8°C° 0.1 mm 2 mps 729 mmHg 86%
06:00 +9°C° 0.1 mm 2 mps 729 mmHg 86%
07:00 +11°C° 0.1 mm 1 mps 729 mmHg 86%
08:00 +11°C° 0.2 mm 1 mps 729 mmHg 87%
09:00 +11°C° 0.2 mm 1 mps 729 mmHg 88%
10:00 +12°C° 0.2 mm 1 mps 729 mmHg 90%
11:00 +13°C° 0.1 mm 1 mps 729 mmHg 87%
12:00 +14°C° 0.1 mm 1 mps 729 mmHg 84%
13:00 +15°C° 0.1 mm 1 mps 729 mmHg 81%
14:00 +15°C° 0.2 mm 1 mps 729 mmHg 81%
15:00 +15°C° 0.2 mm 1 mps 729 mmHg 81%
16:00 +15°C° 0.2 mm 1 mps 729 mmHg 81%
17:00 +15°C° 0.2 mm 1 mps 730 mmHg 83%
18:00 +14°C° 0.2 mm 1 mps 730 mmHg 85%
19:00 +13°C° 0.2 mm 1 mps 730 mmHg 88%
20:00 +12°C° 0.1 mm 2 mps 730 mmHg 88%
21:00 +12°C° 0.1 mm 2 mps 730 mmHg 89%
22:00 +10°C° 0.1 mm 2 mps 731 mmHg 90%
23:00 +9°C° 0 mm 2 mps 731 mmHg 90%

14 May, Friday

Time Temperature Precipitation Wind Pressure Humidity
00:00 +8°C° 0 mm 2 mps 731 mmHg 90%
01:00 +8°C° 0 mm 2 mps 731 mmHg 90%
02:00 +8°C° 0 mm 2 mps 731 mmHg 90%
03:00 +7°C° 0 mm 2 mps 731 mmHg 90%
04:00 +7°C° 0 mm 2 mps 731 mmHg 91%
05:00 +8°C° 0 mm 3 mps 731 mmHg 87%
06:00 +9°C° 0 mm 3 mps 732 mmHg 83%
07:00 +10°C° 0 mm 3 mps 732 mmHg 79%
08:00 +11°C° 0 mm 3 mps 732 mmHg 76%
09:00 +12°C° 0 mm 3 mps 732 mmHg 73%
10:00 +13°C° 0 mm 3 mps 733 mmHg 69%
11:00 +13°C° 0 mm 4 mps 733 mmHg 68%
12:00 +14°C° 0 mm 5 mps 733 mmHg 67%
13:00 +14°C° 0 mm 5 mps 733 mmHg 67%
14:00 +14°C° 0 mm 5 mps 733 mmHg 69%
15:00 +13°C° 0 mm 5 mps 734 mmHg 72%
16:00 +12°C° 0 mm 5 mps 734 mmHg 74%
17:00 +12°C° 0 mm 5 mps 734 mmHg 77%
18:00 +11°C° 0 mm 4 mps 735 mmHg 80%
19:00 +10°C° 0 mm 4 mps 735 mmHg 82%
20:00 +10°C° 0 mm 4 mps 735 mmHg 84%
21:00 +10°C° 0 mm 4 mps 735 mmHg 87%
22:00 +10°C° 0 mm 3 mps 736 mmHg 89%
23:00 +10°C° 0.4 mm 3 mps 736 mmHg 91%

15 May, Saturday

Time Temperature Precipitation Wind Pressure Humidity
00:00 +10°C° 0.4 mm 3 mps 736 mmHg 93%
01:00 +10°C° 0.4 mm 3 mps 736 mmHg 95%
02:00 +10°C° 0.2 mm 3 mps 736 mmHg 95%
03:00 +9°C° 0.2 mm 3 mps 736 mmHg 95%
04:00 +9°C° 0.2 mm 3 mps 736 mmHg 95%
05:00 +10°C° 0.2 mm 2 mps 737 mmHg 94%
06:00 +10°C° 0.2 mm 2 mps 737 mmHg 93%
07:00 +10°C° 0.2 mm 2 mps 737 mmHg 92%
08:00 +12°C° 0.1 mm 2 mps 738 mmHg 88%
09:00 +13°C° 0.1 mm 2 mps 738 mmHg 84%
10:00 +14°C° 0.1 mm 2 mps 738 mmHg 80%
11:00 +15°C° 0.3 mm 2 mps 738 mmHg 74%
12:00 +17°C° 0.3 mm 2 mps 738 mmHg 68%
13:00 +18°C° 0.3 mm 2 mps 737 mmHg 62%
14:00 +18°C° 0.3 mm 2 mps 737 mmHg 63%
15:00 +19°C° 0.3 mm 1 mps 737 mmHg 63%
16:00 +19°C° 0.3 mm 1 mps 737 mmHg 64%
17:00 +18°C° 0.1 mm 1 mps 737 mmHg 69%
18:00 +15°C° 0.1 mm 1 mps 737 mmHg 74%
19:00 +13°C° 0.1 mm 0 mps 737 mmHg 79%
20:00 +12°C° 0 mm 0 mps 737 mmHg 81%
21:00 +12°C° 0 mm 0 mps 737 mmHg 83%
22:00 +11°C° 0 mm 0 mps 737 mmHg 85%
23:00 +10°C° 0 mm 0 mps 737 mmHg 86%
Show more